EW7602 Weather Reports


time (UTC)temp
C
wind
direction
speed
KPH
gust
KPH
rain 1hr
cm
rain 24hr
cm
rain mn
cm
humidity
%
barometer
mb
20260507151301 8 260 9.7 24.1 0.00 0.69 0.03 57 1009.7
20260507150800 8 226 8.0 24.1 0.00 0.71 0.03 52 1009.8
20260507150300 8 219 3.2 14.5 0.00 0.71 0.03 59 1009.8
20260507145800 8 193 3.2 12.9 0.00 0.74 0.03 60 1009.8
20260507145258 8 199 6.4 12.9 0.00 0.74 0.03 61 1009.8
20260507144756 7 293 4.8 19.3 0.00 0.76 0.03 58 1009.8
20260507144519 7 198 4.8 19.3 0.00 0.76 0.03 59 1009.8
20260507143756 8 296 6.4 16.1 0.00 0.79 0.03 59 1009.8
20260507143256 8 214 4.8 14.5 0.00 0.79 0.03 59 1009.8
20260507142756 7 298 4.8 19.3 0.00 0.81 0.03 61 1009.8
20260507142249 7 281 3.2 19.3 0.00 0.81 0.03 63 1009.9
20260507142010 7 228 4.8 14.5 0.00 0.84 0.03 64 1009.9
20260507141243 7 294 3.2 16.1 0.00 0.84 0.03 66 1009.8
20260507141008 7 289 3.2 16.1 0.00 0.86 0.03 66 1009.9
20260507140241 7 302 3.2 11.3 0.00 0.86 0.03 67 1009.9
20260507140001 7 250 4.8 14.5 0.03 0.86 0.03 66 1009.7
20260507135243 7 316 4.8 14.5 0.03 0.89 0.03 69 1009.8
20260507134740 7 315 4.8 14.5 0.03 0.89 0.03 70 1009.9
20260507134237 7 311 4.8 14.5 0.03 0.89 0.03 68 1009.8
20260507134225 7 272 3.2 11.3 0.03 0.89 0.03 70 1009.8
20260507133238 7 230 3.2 11.3 0.03 0.89 0.03 73 1009.9
20260507132736 7 336 4.8 12.9 0.03 0.89 0.03 74 1009.9
20260507132237 7 240 4.8 12.9 0.03 0.89 0.03 77 1009.9
20260507131736 7 319 4.8 12.9 0.03 0.89 0.03 78 1009.8
20260507131237 6 208 4.8 14.5 0.03 0.89 0.03 79 1009.7
20260507131003 6 223 4.8 14.5 0.03 0.91 0.03 80 1009.7
20260507130236 6 287 3.2 11.3 0.03 0.91 0.03 86 1009.7
20260507125737 6 260 1.6 11.3 0.00 0.89 0.00 89 1009.9
20260507125230 6 274 1.6 4.8 0.00 0.89 0.00 92 1009.8
20260507124725 6 356 1.6 4.8 0.00 0.91 0.00 93 1009.6
20260507124219 6 353 0.0 4.8 0.00 0.94 0.00 95 1009.6
20260507123714 6 207 1.6 9.7 0.00 0.97 0.00 95 1009.6
20260507123208 6 264 3.2 9.7 0.00 0.97 0.00 95 1009.7
20260507122701 6 243 3.2 12.9 0.00 0.97 0.00 95 1009.7
20260507122155 6 236 3.2 12.9 0.00 0.99 0.00 96 1009.6
20260507121649 6 238 1.6 6.4 0.00 1.02 0.00 96 1009.6
20260507121142 6 281 1.6 6.4 0.00 1.02 0.00 97 1009.5
20260507120637 6 212 1.6 6.4 0.00 1.04 0.00 97 1009.5
20260507120130 6 249 1.6 6.4 0.00 1.04 0.00 97 1009.5
20260507115624 6 289 0.0 4.8 0.00 1.07 0.00 97 1009.5
20260507115119 5 307 1.6 3.2 0.00 1.07 0.00 97 1009.5
20260507114613 5 252 0.0 3.2 0.00 1.07 0.00 97 1009.2
20260507114334 5 227 0.0 1.6 0.00 1.09 0.00 97 1009.2
20260507113559 5 153 0.0 0.0 0.00 1.12 0.00 97 1009.3
20260507113055 5 153 0.0 0.0 0.00 1.12 0.00 97 1009.2
20260507112805 5 194 0.0 0.0 0.00 1.14 0.00 97 1009.1
20260507112043 5 171 0.0 0.0 0.00 1.17 0.00 97 1009.1
20260507111536 5 171 0.0 0.0 0.00 1.19 0.00 97 1009.2
20260507111030 5 171 0.0 4.8 0.00 1.19 0.00 97 1009.3
20260507110523 5 171 0.0 4.8 0.00 1.19 0.00 97 1009.3
20260507110019 5 204 0.0 0.0 0.00 1.19 0.00 97 1009.3
20260507105512 5 221 0.0 0.0 0.00 1.19 0.00 97 1009.4
20260507105006 5 221 0.0 0.0 0.00 1.22 0.00 97 1009.2
20260507104459 5 221 0.0 0.0 0.00 1.22 0.00 97 1009.2
20260507103954 5 221 0.0 0.0 0.00 1.22 0.00 97 1009.1
20260507103204 5 221 0.0 0.0 0.00 1.22 0.00 97 1008.8
20260507102436 5 221 0.0 0.0 0.00 1.22 0.00 97 1008.9
20260507101929 5 221 0.0 0.0 0.00 1.24 0.00 97 1008.8
20260507101425 5 221 0.0 0.0 0.00 1.24 0.00 97 1008.8
20260507100919 5 221 0.0 0.0 0.00 1.24 0.00 97 1008.7
20260507100412 5 221 0.0 0.0 0.00 1.24 0.00 97 1008.8
20260507095906 5 221 0.0 0.0 0.00 1.24 0.00 97 1008.8
20260507095629 5 221 0.0 0.0 0.00 1.24 0.00 97 1008.9
20260507095113 5 221 0.0 0.0 0.00 1.30 0.00 97 1008.9
20260507094348 5 221 0.0 0.0 0.00 1.32 0.00 97 1008.8
20260507093842 5 221 0.0 0.0 0.00 1.32 0.00 97 1008.8
20260507093337 5 221 0.0 0.0 0.00 1.32 0.00 97 1008.7
20260507092831 5 221 0.0 0.0 0.00 1.35 0.00 97 1008.7
20260507092546 5 221 0.0 0.0 0.00 1.35 0.00 97 1008.6
20260507091818 5 221 0.0 0.0 0.00 1.35 0.00 97 1008.9
20260507091312 5 221 0.0 0.0 0.00 1.40 0.00 97 1008.9
20260507090807 5 221 0.0 0.0 0.00 1.40 0.00 97 1008.8
20260507090306 5 221 0.0 0.0 0.00 1.40 0.00 97 1008.9
20260507090247 5 221 0.0 0.0 0.00 1.40 0.00 97 1009.0
20260507085531 5 221 0.0 0.0 0.00 1.42 0.00 97 1008.9
20260507085028 5 221 0.0 0.0 0.00 1.42 0.00 97 1008.9
20260507084754 5 221 0.0 0.0 0.00 1.42 0.00 97 1008.9
20260507083800 5 221 0.0 0.0 0.00 1.42 0.00 97 1009.0
20260507083300 5 221 0.0 0.0 0.00 1.42 0.00 97 1009.0
20260507082759 5 221 0.0 0.0 0.00 1.45 0.00 97 1009.2
20260507082256 5 221 0.0 0.0 0.00 1.45 0.00 97 1009.2
20260507081756 5 221 0.0 0.0 0.00 1.45 0.00 97 1009.2
20260507081255 4 221 0.0 0.0 0.00 1.47 0.00 97 1009.2
20260507081022 4 221 0.0 0.0 0.00 1.47 0.00 97 1009.3
20260507080255 4 221 0.0 0.0 0.00 1.47 0.00 97 1009.3
20260507075752 4 221 0.0 0.0 0.00 1.47 0.00 97 1009.2
20260507075738 4 221 0.0 0.0 0.00 1.52 0.00 97 1009.2
20260507074752 4 221 0.0 0.0 0.00 1.55 0.00 97 1009.4
20260507074253 4 221 0.0 0.0 0.00 1.55 0.00 96 1009.4
20260507073752 4 221 0.0 0.0 0.00 1.55 0.00 97 1009.5
20260507073251 4 221 0.0 0.0 0.00 1.55 0.00 96 1009.5
20260507072753 4 221 0.0 0.0 0.00 1.55 0.00 96 1009.5
20260507072525 4 221 1.6 4.8 0.00 1.55 0.00 96 1009.4
20260507072018 4 221 1.6 4.8 0.00 1.55 0.00 96 1009.3
20260507071510 4 219 1.6 6.4 0.00 1.55 0.00 96 1009.2
20260507070746 4 164 1.6 6.4 0.00 1.57 0.00 96 1008.9
20260507070246 4 271 0.0 0.0 0.00 1.57 0.00 96 1008.9
20260507065744 4 76 0.0 0.0 0.00 1.60 0.00 96 1008.8
20260507065501 4 76 0.0 0.0 0.00 1.60 0.00 96 1008.7
20260507064747 4 76 0.0 0.0 0.00 1.60 0.00 96 1008.6
20260507064503 4 281 0.0 0.0 0.00 1.60 0.00 96 1008.6
20260507063741 4 281 0.0 0.0 0.00 1.63 0.00 96 1008.6
20260507063241 4 281 0.0 0.0 0.00 1.63 0.00 96 1008.6
20260507062739 4 281 0.0 0.0 0.00 1.63 0.00 96 1008.7
20260507062503 4 281 0.0 0.0 0.00 1.63 0.00 96 1008.7
20260507061738 4 281 0.0 0.0 0.00 1.63 0.00 96 1008.7
20260507061236 4 281 0.0 0.0 0.00 1.63 0.00 96 1008.9
20260507060954 4 281 0.0 0.0 0.00 1.63 0.00 96 1008.9
20260507060235 4 281 0.0 0.0 0.00 1.63 0.00 96 1009.2
20260507055733 4 281 0.0 0.0 0.00 1.65 0.00 96 1009.1
20260507055231 4 281 0.0 0.0 0.00 1.65 0.00 96 1009.2
20260507054953 4 281 0.0 0.0 0.00 1.65 0.00 96 1009.1
20260507054224 4 281 0.0 0.0 0.00 1.65 0.00 95 1009.1
20260507053718 4 281 0.0 0.0 0.00 1.70 0.00 95 1009.2
20260507053440 5 281 0.0 0.0 0.00 1.70 0.00 96 1009.2
20260507052706 5 281 0.0 0.0 0.00 1.70 0.00 96 1009.3
20260507052159 4 281 0.0 0.0 0.00 1.70 0.00 95 1009.4
20260507051652 4 281 0.0 0.0 0.00 1.73 0.00 95 1009.3
20260507051147 4 281 0.0 0.0 0.00 1.73 0.00 95 1009.4
20260507050641 5 281 0.0 0.0 0.00 1.75 0.00 95 1009.4
20260507050135 5 281 0.0 0.0 0.00 1.78 0.00 95 1009.5
20260507045628 5 281 0.0 0.0 0.00 1.78 0.00 95 1009.7
20260507045342 5 281 0.0 0.0 0.00 1.80 0.00 95 1009.8
20260507044844 5 281 0.0 0.0 0.00 1.83 0.00 95 1009.9
20260507044111 5 281 0.0 0.0 0.00 1.85 0.00 95 1009.8
20260507043826 5 281 0.0 0.0 0.00 1.85 0.00 94 1009.8
20260507043100 5 281 0.0 0.0 0.00 1.88 0.00 94 1009.8
20260507042815 6 281 0.0 0.0 0.00 1.88 0.00 95 1009.8
20260507042047 6 281 0.0 0.0 0.00 1.88 0.00 95 1009.8
20260507041540 6 281 0.0 0.0 0.00 1.88 0.00 94 1009.7
20260507041035 6 281 0.0 0.0 0.00 1.91 0.00 94 1009.8
20260507040528 6 281 0.0 0.0 0.00 1.91 0.00 95 1009.8
20260507040023 6 281 0.0 0.0 0.00 1.91 0.00 95 1009.8
20260507035517 6 281 0.0 0.0 0.00 1.93 1.91 94 1009.8
20260507035009 6 281 0.0 0.0 0.00 1.93 1.91 93 1009.8
20260507034503 6 281 0.0 0.0 0.00 1.93 1.91 94 1009.8
20260507033958 6 281 0.0 0.0 0.00 1.96 1.91 94 1009.8
20260507033452 7 281 0.0 0.0 0.00 1.96 1.91 95 1009.9
20260507033214 7 281 0.0 0.0 0.00 1.96 1.91 95 1009.9
20260507032440 7 281 0.0 0.0 0.00 1.98 1.91 95 1009.9
20260507031935 7 281 0.0 0.0 0.00 2.06 1.91 96 1009.9
20260507031655 8 281 0.0 0.0 0.00 2.08 1.91 97 1010.1
20260507031142 8 281 0.0 0.0 0.00 2.11 1.91 97 1009.9
20260507030416 6 281 0.0 0.0 0.00 2.11 1.91 95 1010.2
20260507030127 6 281 0.0 0.0 0.00 2.13 1.91 95 1010.1
20260507025635 6 281 0.0 0.0 0.00 2.13 1.91 96 1010.1
20260507024857 6 281 0.0 0.0 0.00 2.13 1.91 95 1010.1
20260507024609 6 281 0.0 0.0 0.00 2.13 1.91 96 1010.1
20260507023846 6 281 0.0 0.0 0.00 2.13 1.91 96 1010.1
20260507023340 6 281 0.0 0.0 0.00 2.13 1.91 96 1009.9
20260507022835 6 281 0.0 0.0 0.00 2.13 1.91 96 1010.1
20260507022328 6 281 0.0 0.0 0.00 2.13 1.91 96 1010.1
20260507021822 6 281 0.0 0.0 0.00 2.13 1.91 95 1009.9
20260507021318 6 281 0.0 0.0 0.00 2.13 1.91 95 1010.1
20260507020811 6 281 0.0 0.0 0.00 2.13 1.91 96 1010.1
20260507020303 6 281 0.0 0.0 0.00 2.13 1.91 96 1009.8
20260507015759 6 281 0.0 0.0 0.00 2.13 1.91 96 1009.8
20260507015253 6 282 0.0 0.0 0.00 2.13 1.91 96 1010.1
20260507014746 6 281 0.0 1.6 0.00 2.13 1.91 96 1010.3
20260507014502 6 281 0.0 1.6 0.00 2.13 1.91 96 1010.3
20260507013734 6 281 0.0 3.2 0.00 2.13 1.91 95 1010.4
20260507013446 6 339 0.0 3.2 0.00 2.13 1.91 95 1010.1
20260507012723 6 54 0.0 0.0 0.00 2.13 1.91 96 1010.2
20260507012218 6 215 0.0 0.0 0.00 2.13 1.91 96 1010.2
20260507011710 6 215 0.0 0.0 0.00 2.13 1.91 95 1010.2
20260507011208 6 215 0.0 0.0 0.03 2.13 1.91 96 1010.3
20260507010708 6 215 0.0 0.0 0.03 2.13 1.91 96 1010.2
20260507010426 6 215 0.0 0.0 0.03 2.13 1.91 96 1010.2
20260507005704 6 215 0.0 0.0 0.03 2.13 1.91 95 1010.1
20260507005201 6 215 0.0 0.0 0.03 2.16 1.91 95 1009.9
20260507004702 6 215 0.0 0.0 0.03 2.18 1.91 95 1009.9
20260507004200 6 215 0.0 0.0 0.03 2.18 1.91 95 1009.8
20260507003701 6 215 0.0 0.0 0.03 2.18 1.91 95 1009.8
20260507003158 6 233 0.0 0.0 0.03 2.21 1.91 95 1009.8
20260507002658 6 233 0.0 0.0 0.03 2.21 1.91 95 1009.7
20260507002154 6 233 0.0 0.0 0.03 2.21 1.91 95 1009.7
20260507001654 6 233 0.0 0.0 0.03 2.21 1.91 95 1009.6
20260507001152 6 233 0.0 0.0 0.00 2.18 1.91 95 1009.5
20260507000650 6 233 0.0 0.0 0.00 2.18 1.88 95 1009.4
20260507000150 6 233 0.0 0.0 0.00 2.18 1.88 95 1009.3
20260506235917 6 275 0.0 1.6 0.00 2.18 1.88 94 1009.2
20260506235144 6 278 0.0 1.6 0.00 2.18 1.88 94 1009.1
20260506234643 6 55 0.0 1.6 0.00 2.18 1.88 94 1008.9
20260506234143 6 65 0.0 0.0 0.00 2.18 1.88 94 1008.8
20260506233643 6 65 0.0 0.0 0.00 2.18 1.88 94 1008.8
20260506233140 6 65 0.0 0.0 0.00 2.18 1.88 94 1008.8
20260506232638 7 65 0.0 0.0 0.00 2.18 1.88 94 1008.8
20260506232403 7 65 0.0 1.6 0.03 2.18 1.88 94 1008.7
20260506231855 7 65 0.0 1.6 0.03 2.18 1.88 95 1008.6
20260506231135 7 65 0.0 0.0 0.03 2.18 1.88 96 1008.6
20260506230636 6 74 0.0 3.2 0.03 2.18 1.88 94 1008.5
20260506230136 6 74 0.0 3.2 0.03 2.18 1.88 94 1008.6
20260506225636 7 10 0.0 1.6 0.03 2.18 1.88 94 1008.5
20260506225131 7 19 0.0 1.6 0.03 2.18 1.88 93 1008.5
20260506224631 7 334 0.0 1.6 0.03 2.18 1.88 94 1008.9
20260506224133 7 319 1.6 4.8 0.03 2.18 1.88 96 1008.8
20260506223633 7 351 0.0 4.8 0.03 2.18 1.88 95 1008.9
20260506223131 7 341 0.0 3.2 0.03 2.18 1.88 95 1008.7
20260506223122 7 57 0.0 3.2 0.03 2.18 1.88 95 1008.7
20260506222134 6 37 1.6 8.0 0.00 2.16 1.85 95 1008.7
20260506221631 6 36 1.6 8.0 0.00 2.16 1.85 95 1008.7
20260506221127 6 333 3.2 9.7 0.00 2.16 1.85 94 1008.8
20260506220630 6 345 3.2 8.0 0.00 2.16 1.85 94 1009.0
20260506220348 6 323 1.6 8.0 0.00 2.16 1.85 95 1008.8
20260506215617 6 238 1.6 9.7 0.00 2.16 1.85 95 1008.8
20260506215601 6 296 1.6 9.7 0.03 2.16 1.85 95 1008.7
20260506214611 6 6 1.6 6.4 0.03 2.16 1.85 95 1008.6
20260506214110 6 18 1.6 8.0 0.03 2.16 1.85 95 1008.6
20260506213609 6 329 1.6 9.7 0.03 2.16 1.85 95 1008.6
20260506213110 6 349 1.6 9.7 0.03 2.16 1.85 95 1008.6
20260506212610 6 326 1.6 8.0 0.05 2.16 1.85 95 1008.5
20260506212109 6 326 1.6 6.4 0.05 2.16 1.85 95 1008.5
20260506211609 6 349 1.6 8.0 0.05 2.16 1.85 95 1008.4
20260506211110 6 329 1.6 11.3 0.08 2.16 1.85 95 1008.3
20260506210611 6 328 1.6 11.3 0.08 2.16 1.85 95 1008.3
20260506210111 6 28 1.6 8.0 0.08 2.16 1.85 95 1008.4
20260506205834 6 49 1.6 8.0 0.08 2.16 1.85 95 1008.5
20260506205109 6 25 1.6 6.4 0.05 2.13 1.83 95 1008.6
20260506204836 6 12 1.6 8.0 0.05 2.13 1.83 95 1008.7
20260506204112 6 293 1.6 9.7 0.05 2.13 1.83 95 1008.6
20260506203612 6 7 1.6 9.7 0.05 2.13 1.83 95 1008.6
20260506203329 6 37 1.6 11.3 0.05 2.16 1.83 95 1008.5
20260506202601 6 20 1.6 11.3 0.03 2.16 1.83 95 1008.6
20260506202103 6 291 1.6 11.3 0.05 2.18 1.80 95 1008.5
20260506201600 6 326 1.6 4.8 0.05 2.21 1.80 95 1008.5
20260506201100 6 310 0.0 4.8 0.03 2.24 1.78 95 1008.5
20260506200817 6 288 1.6 3.2 0.03 2.24 1.78 95 1008.5
20260506200058 6 288 1.6 6.4 0.03 2.24 1.78 95 1008.5
20260506195556 6 296 1.6 6.4 0.03 2.24 1.78 94 1008.4
20260506195059 6 290 0.0 3.2 0.03 2.24 1.78 95 1008.3
20260506194557 6 351 0.0 3.2 0.05 2.24 1.78 95 1008.3
20260506194053 6 340 1.6 4.8 0.05 2.24 1.78 95 1008.3
20260506193553 6 298 1.6 9.7 0.05 2.24 1.78 95 1008.2
20260506193054 6 346 1.6 9.7 0.05 2.24 1.78 95 1008.2
20260506192813 6 350 1.6 6.4 0.05 2.26 1.78 95 1008.0
20260506192054 6 266 1.6 6.4 0.03 2.34 1.75 95 1008.2
20260506191551 6 324 3.2 8.0 0.03 2.34 1.75 95 1008.0
20260506191049 6 49 1.6 8.0 0.03 2.34 1.75 95 1007.9
20260506190809 6 76 0.0 4.8 0.03 2.34 1.75 95 1007.9
20260506190049 6 329 1.6 3.2 0.05 2.36 1.75 95 1008.2
20260506185547 6 15 0.0 6.4 0.05 2.36 1.75 95 1008.2
20260506185041 6 17 1.6 6.4 0.05 2.36 1.75 95 1008.3
20260506184535 6 342 1.6 4.8 0.03 2.34 1.73 95 1008.5
20260506184029 6 331 1.6 6.4 0.05 2.34 1.73 95 1008.5
20260506183522 6 320 0.0 6.4 0.05 2.34 1.73 95 1008.6
20260506183018 6 297 1.6 4.8 0.05 2.34 1.73 95 1008.6
20260506182512 6 326 1.6 8.0 0.08 2.34 1.73 95 1008.7
20260506182007 6 289 0.0 8.0 0.10 2.34 1.73 95 1008.7
20260506181500 6 299 0.0 1.6 0.10 2.34 1.73 95 1008.9
20260506180959 6 316 0.0 3.2 0.10 2.34 1.73 95 1008.9
20260506180458 6 345 0.0 3.2 0.10 2.31 1.70 95 1008.9
20260506180219 6 321 0.0 4.8 0.10 2.31 1.70 95 1009.0
20260506175457 6 30 0.0 4.8 0.10 2.31 1.70 95 1009.0
20260506175223 6 36 0.0 4.8 0.13 2.31 1.70 95 1009.0
20260506174457 6 302 0.0 0.0 0.13 2.31 1.70 95 1009.2
20260506173956 6 307 0.0 0.0 0.13 2.29 1.68 95 1009.1
20260506173453 6 306 0.0 3.2 0.15 2.29 1.68 95 1009.0
20260506172953 6 273 0.0 4.8 0.13 2.26 1.68 95 1009.1
20260506172449 6 323 0.0 4.8 0.15 2.26 1.65 95 1009.1
20260506171947 6 261 0.0 4.8 0.15 2.24 1.63 95 1009.3
20260506171449 6 278 1.6 4.8 0.18 2.24 1.63 95 1009.1
20260506171210 6 23 1.6 8.0 0.18 2.24 1.63 95 1009.0
20260506170446 6 23 1.6 8.0 0.18 2.21 1.60 95 1009.1
20260506170435 6 323 0.0 3.2 0.18 2.21 1.60 95 1009.1
20260506165444 6 336 0.0 8.0 0.20 2.21 1.60 95 1009.3
20260506164942 6 323 1.6 8.0 0.20 2.18 1.57 95 1009.3
20260506164441 6 219 1.6 8.0 0.20 2.18 1.57 95 1009.2
20260506163937 6 18 1.6 6.4 0.20 2.16 1.55 95 1009.3
20260506163437 6 62 0.0 4.8 0.20 2.13 1.55 95 1009.4
20260506162936 6 13 0.0 4.8 0.23 2.13 1.52 95 1009.4
20260506162436 6 328 1.6 6.4 0.23 2.11 1.50 95 1009.5
20260506161937 6 295 0.0 6.4 0.20 2.08 1.47 95 1009.4
20260506161435 6 291 0.0 4.8 0.20 2.06 1.47 95 1009.5
20260506160935 6 50 0.0 4.8 0.23 2.06 1.45 95 1009.5
20260506160434 6 37 1.6 12.9 0.20 2.03 1.42 95 1009.5
20260506155935 6 288 3.2 12.9 0.20 2.03 1.42 95 1009.6
20260506155436 6 78 1.6 9.7 0.20 2.01 1.40 95 1009.7
20260506154934 6 46 1.6 9.7 0.20 1.98 1.40 95 1009.8
20260506154916 6 359 3.2 8.0 0.20 1.96 1.35 95 1009.7
20260506154527 6 13 1.6 8.0 0.20 1.98 1.37 95 1009.8
20260506153656 6 314 1.6 6.4 0.18 1.93 1.32 95 1009.6
20260506152935 6 321 1.6 4.8 0.15 1.91 1.30 95 1009.7
20260506152435 6 291 0.0 3.2 0.15 1.88 1.27 95 1009.8
20260506151933 6 311 0.0 3.2 0.18 1.88 1.27 95 1009.5